Location: Blanot
(47.1713°N, 4.2340°E)
Time: 21:12:17
(UTC+00:00)

SL-08 R/B - Pass Details

Date: 14 July 2020
Orbit: 674 x 739 km, 98.4° (Epoch: 14 August)

Event Time Altitude Azimuth Distance (km) Brightness Sun altitude
Exits shadow 03:01:16 - 187° (S) 2,624 5.8 -8.8°
Reaches altitude 10° 03:02:28 10° 191° (SSW) 2,162 5.3 -8.6°
Maximum altitude 03:06:57 41° 262° (W) 1,029 3.8 -8.1°
Drops below altitude 10° 03:11:33 10° 333° (NNW) 2,217 6.1 -7.5°
Sets 03:13:58 0° 340° (NNW) 3,153 7.0 -7.2°
